Mountain Home, Arkansas, United States (72653)
Lat: 36.34N, Lon: 92.39W
Wx Zone: ARZ005
Local Info
Past Weather Observations for Friday, August 29, 2014

NOTE: This archive is for the closest National Weather Service station to Mountain Home. Information may differ from the station used for current weather conditions.

Click here for Long-term Archive

Time Weather Temperature Dewpoint Humidity Pressure Winds Precip Visibility
23:53
Partly Cloudy
72°F / 22°C 70°F / 21°C 94% 29.98 in
(1015 mb)
S 4.6 mph
(S 7 kph)
- 9SM
22:53
Mostly Cloudy
72°F / 22°C 70°F / 21°C 94% 29.98 in
(1015 mb)
SSE 4.6 mph
(SSE 7 kph)
0.00 in
(0.00 mm)
10SM
21:53
Overcast
Light Rain
72°F / 22°C 72°F / 22°C 100% 29.98 in
(1015 mb)
S 6.9 mph
(S 11 kph)
0.00 in
(0.00 mm)
10SM
20:53
Mostly Cloudy
73°F / 23°C 70°F / 21°C 89% 29.98 in
(1015 mb)
SE 4.6 mph
(SE 7 kph)
0.00 in
(0.00 mm)
10SM
19:53
Mostly Cloudy
73°F / 23°C 68°F / 20°C 83% 29.98 in
(1015 mb)
S 5.8 mph
(S 9 kph)
- 10SM
18:53
Mostly Cloudy
73°F / 23°C 70°F / 21°C 89% 29.95 in
(1014 mb)
S 3.5 mph
(S 6 kph)
0.00 in
(0.00 mm)
10SM
17:53
Mostly Cloudy
73°F / 23°C 70°F / 21°C 89% 29.92 in
(1013 mb)
S 4.6 mph
(S 7 kph)
- 10SM
16:53
Clear
75°F / 24°C 70°F / 21°C 83% 29.92 in
(1013 mb)
S 9.2 mph
(S 15 kph)
0.00 in
(0.00 mm)
10SM
15:53
Mostly Cloudy
73°F / 23°C 70°F / 21°C 89% 29.92 in
(1013 mb)
S 4.6 mph
(S 7 kph)
0.00 in
(0.00 mm)
10SM
14:53
Mostly Cloudy
Light Rain
72°F / 22°C 70°F / 21°C 94% 29.92 in
(1013 mb)
Calm 0.05 in
(1.27 mm)
8SM
14:45
Mostly Cloudy
Thunder Storms
72°F / 22°C 70°F / 21°C 94% 29.92 in
(1013 mb)
S 4.6 mph
(S 7 kph)
0.05 in
(1.27 mm)
7SM
14:38
Mostly Cloudy
Thunder Storms
72°F / 22°C 70°F / 21°C 94% 29.92 in
(1013 mb)
S 8.1 mph
(S 13 kph)
0.05 in
(1.27 mm)
2 1/2SM
14:28
Mostly Cloudy
Thunder Storms
73°F / 23°C 66°F / 19°C 78% 29.95 in
(1014 mb)
SW 11.5 mph
(SW 19 kph)
0.02 in
(0.51 mm)
4SM
14:07
Mostly Cloudy
Thunder Storms
86°F / 30°C 66°F / 19°C 52% 29.92 in
(1013 mb)
SW 19.6 mph
(SW 32 kph)
- 10SM
13:53
Mostly Cloudy
86°F / 30°C 68°F / 20°C 55% 29.89 in
(1012 mb)
S 9.2 mph
(S 15 kph)
- 10SM
12:53
Partly Cloudy
88°F / 31°C 68°F / 20°C 52% 29.92 in
(1013 mb)
S 10.4 mph
(S 17 kph)
- 10SM
11:53
Overcast
82°F / 28°C 66°F / 19°C 58% 29.95 in
(1014 mb)
S 10.4 mph
(S 17 kph)
- 10SM
10:53
Overcast
82°F / 28°C 66°F / 19°C 58% 29.95 in
(1014 mb)
SW 6.9 mph
(SW 11 kph)
- 9SM
09:53
Partly Cloudy
86°F / 30°C 68°F / 20°C 55% 29.98 in
(1015 mb)
SW 12.7 mph
(SW 20 kph)
- 9SM
08:53
Partly Cloudy
82°F / 28°C 66°F / 19°C 58% 29.98 in
(1015 mb)
S 9.2 mph
(S 15 kph)
- 9SM
07:53
Clear
79°F / 26°C 64°F / 18°C 61% 29.98 in
(1015 mb)
SSE 6.9 mph
(SSE 11 kph)
- 8SM
06:53
Mostly Cloudy
72°F / 22°C 63°F / 17°C 73% 29.98 in
(1015 mb)
SE 4.6 mph
(SE 7 kph)
- 8SM
05:53
Partly Cloudy
70°F / 21°C 63°F / 17°C 78% 29.98 in
(1015 mb)
SE 4.6 mph
(SE 7 kph)
- 9SM
04:53
Clear
70°F / 21°C 63°F / 17°C 78% 29.95 in
(1014 mb)
SE 4.6 mph
(SE 7 kph)
- 10SM
03:53
Partly Cloudy
70°F / 21°C 63°F / 17°C 78% 29.95 in
(1014 mb)
Calm - 10SM
02:53
Partly Cloudy
72°F / 22°C 61°F / 16°C 69% 29.95 in
(1014 mb)
SSE 3.5 mph
(SSE 6 kph)
- 10SM
01:53
Partly Cloudy
72°F / 22°C 61°F / 16°C 69% 29.95 in
(1014 mb)
SSE 3.5 mph
(SSE 6 kph)
- 10SM
00:53
Clear
72°F / 22°C 61°F / 16°C 69% 29.98 in
(1015 mb)
SE 3.5 mph
(SE 6 kph)
- 10SM
Time Weather Temperature Dewpoint Humidity Pressure Winds Precip Visibility


Weather for websites

WeatherForYou.com, LLC is not responsible for any damages or problems caused by this service. Current weather conditions are obtained from the closest station including government and personal stations which may have varying degrees of accuracy. Weather forecasts are derived from the NOAA NDFD. Like all things, this site belongs to Jesus Christ... He just trusts me to maintain it. If you have any questions or comments email webmaster@weatherforyou.com

Copyright © 2014, WeatherForYou.com LLC. All rights reserved.